This is the latest recevied weather packets stored in our database for station/object KC4BAM. If no packets are shown the sender has not sent any weather packets the latest 10 day(s).
| Time | Temp. | Humidity | Pressure | Rain* | Wind** | Luminosity | Snow |
|---|---|---|---|---|---|---|---|
| 1778089069 | 14.44° C | 87% | 1004.3 hPa | 0 mm | - | 219 W/m² | - |
| 1778088766 | 14.44° C | 87% | 1004.2 hPa | 0 mm | - | 143 W/m² | - |
| 1778088462 | 14.44° C | 87% | 1004 hPa | 0 mm | - | 366 W/m² | - |
| 1778088159 | 13.89° C | 88% | 1003.7 hPa | 0 mm | - | 248 W/m² | - |
| 1778087857 | 13.89° C | 88% | 1003.9 hPa | 0 mm | - | 210 W/m² | - |
| 1778087553 | 13.89° C | 89% | 1004.1 hPa | 0 mm | - | 267 W/m² | - |
| 1778087251 | 13.33° C | 90% | 1004 hPa | 0 mm | - | 363 W/m² | - |
| 1778086948 | 13.33° C | 90% | 1004.1 hPa | 0 mm | - | 248 W/m² | - |
| 1778086646 | 13.33° C | 91% | 1004.2 hPa | 0 mm | - | 187 W/m² | - |
| 1778086343 | 13.33° C | 91% | 1004.4 hPa | 0 mm | - | 224 W/m² | - |
| 1778086040 | 13.89° C | 92% | 1004.4 hPa | 0 mm | - | 305 W/m² | - |
| 1778085737 | 13.33° C | 92% | 1004.5 hPa | 0 mm | - | 259 W/m² | - |
| 1778085434 | 12.78° C | 93% | 1004.7 hPa | 0 mm | - | 248 W/m² | - |
| 1778085128 | 12.78° C | 94% | 1004.8 hPa | 0 mm | - | 202 W/m² | - |
| 1778084825 | 12.78° C | 94% | 1005 hPa | 0 mm | - | 150 W/m² | - |
| 1778084522 | 12.22° C | 94% | 1004.8 hPa | 0 mm | - | 152 W/m² | - |
| 1778084220 | 12.22° C | 95% | 1005.2 hPa | 0 mm | - | 152 W/m² | - |
| 1778083916 | 12.22° C | 95% | 1005.3 hPa | 0 mm | - | 105 W/m² | - |
| 1778083614 | 11.67° C | 95% | 1005.1 hPa | 0 mm | - | 125 W/m² | - |
| 1778083311 | 11.67° C | 96% | 1004.9 hPa | 0 mm | - | 137 W/m² | - |
| 1778083009 | 11.67° C | 96% | 1004.8 hPa | 0 mm | - | 149 W/m² | - |
| 1778082706 | 11.11° C | 98% | 1004.9 hPa | 0 mm | - | 157 W/m² | - |
| 1778081568 | 11.11° C | 98% | 1004.8 hPa | 0 mm | - | 177 W/m² | - |
| 1778081265 | 11.11° C | 98% | 1004.6 hPa | 0 mm | - | 147 W/m² | - |
| 1778080962 | 11.11° C | 98% | 1004.5 hPa | 0 mm | - | 37 W/m² | - |
* Rain latest hour (hover to see other rain measurements)
** Current wind speed in m/s (hover to see current wind gust speed)